Wind_Speed
9 9 9 10 9 9 10 11 11 11 11 11 11 11 12 12 13 13 13 14 14 14 13 12 12 11 11 11 11 11 12 12 12 12 13 13 14 15 16 17 17 17 17 16 14 17 19 19 19 19 19 20 19 18 17 16 15 14 13 13 11 10 10 10 11 11 11 11 12 11 11 10 10 8 6 4 4 3 3 2 3 4 5 5 6
8 9 9 9 9 9 10 10 10 11 11 10 10 10 11 11 12 13 13 14 14 14 15 14 14 14 13 13 12 12 12 13 13 12 12 13 13 14 15 16 17 17 18 17 14 14 17 19 20 19 19 19 19 19 18 17 16 16 15 14 13 12 12 11 11 12 12 12 12 12 12 11 11 10 7 5 4 3 3 3 3 5 6 6 6
8 8 8 9 9 9 9 9 9 9 10 10 10 10 11 11 12 13 13 14 14 15 15 16 16 16 15 15 14 14 13 13 13 13 12 12 12 13 15 16 17 17 17 17 15 14 15 17 19 20 19 19 20 20 19 19 18 17 17 16 15 14 14 13 12 13 13 13 13 13 13 12 11 11 9 7 5 4 4 4 4 5 6 6 7
7 7 8 8 9 9 9 9 9 9 9 9 10 11 11 12 13 14 14 15 15 16 16 17 17 17 17 17 16 16 15 14 14 13 13 12 12 13 14 14 15 16 16 16 16 15 14 16 18 19 19 19 20 21 21 20 20 20 19 18 17 16 16 15 14 13 13 14 14 14 14 13 12 12 11 9 7 5 4 4 4 5 7 7 7
7 7 7 7 8 8 8 9 9 8 9 9 10 10 11 12 13 14 15 15 16 16 17 17 18 18 18 18 18 18 18 17 15 14 13 13 13 13 14 14 14 15 16 16 17 17 16 15 16 18 19 19 20 21 22 23 23 22 20 20 19 18 18 17 16 15 14 15 15 15 15 15 14 13 12 11 8 7 6 5 4 5 6 7 8
7 7 6 6 7 7 7 7 8 8 9 9 10 10 11 12 12 13 14 15 16 16 17 17 18 18 18 18 18 18 18 18 17 16 14 14 14 14 14 15 16 17 17 17 18 18 17 16 16 17 19 21 21 22 23 25 25 23 22 22 21 20 20 19 18 17 16 16 16 16 16 16 15 14 13 12 11 9 7 6 5 5 6 7 7
8 8 8 7 7 7 7 7 7 8 9 9 11 11 12 12 13 13 14 15 15 16 17 17 17 18 19 19 19 19 19 18 18 17 16 14 14 14 14 15 16 17 18 18 18 19 18 17 17 19 20 21 22 22 23 24 25 23 23 22 21 21 20 20 20 19 18 17 17 17 17 17 16 16 15 14 12 10 9 7 6 6 6 7 7
8 8 8 8 8 8 8 8 8 9 9 10 11 12 12 13 13 14 14 14 15 15 16 17 17 17 18 19 19 20 20 19 18 17 17 16 15 14 14 15 16 17 18 18 19 19 19 18 18 20 22 22 22 23 24 25 25 24 23 22 21 21 21 21 21 21 20 19 18 18 18 18 18 17 16 15 14 12 11 9 8 7 7 7 8
9 8 8 8 9 9 10 10 10 10 11 11 12 13 13 13 13 13 13 14 15 15 16 17 17 18 18 18 19 20 20 20 19 18 17 16 16 16 15 14 15 17 18 19 19 19 20 20 20 21 22 23 24 25 26 26 25 23 22 23 23 23 24 23 23 23 22 21 20 19 19 19 19 18 18 16 15 14 13 11 10 9 8 8 8
9 9 9 10 10 10 11 12 12 12 12 13 13 13 13 13 13 14 14 14 15 16 16 17 18 18 19 19 19 19 19 19 19 18 17 16 16 16 16 15 15 15 16 18 20 20 21 21 21 22 23 24 25 27 27 25 23 22 23 25 25 25 25 24 24 24 24 23 22 21 20 20 20 20 19 18 16 15 14 13 12 11 10 9 9
9 10 10 10 11 11 12 12 13 13 13 13 14 14 14 14 15 15 15 15 16 17 17 17 18 19 19 20 20 20 20 19 19 18 18 17 16 16 16 16 16 15 15 16 18 20 22 22 22 23 24 25 26 28 28 25 24 24 24 26 27 26 26 25 25 25 25 26 25 24 23 22 21 21 20 20 18 17 16 15 14 13 12 11 10
9 10 10 11 11 12 12 13 13 13 14 14 14 15 15 15 16 16 16 16 17 18 18 18 19 19 19 19 20 20 20 20 19 19 18 17 16 16 16 16 16 16 16 16 17 18 20 22 23 24 25 26 26 27 27 26 27 27 26 27 27 28 28 27 27 28 28 28 27 27 26 25 24 23 22 21 20 19 17 17 16 15 14 13 12
9 10 11 11 12 12 13 14 14 14 14 14 14 15 15 15 16 16 16 16 17 18 19 19 19 20 20 20 19 20 20 20 19 19 18 17 16 16 16 16 16 17 17 17 17 18 18 20 22 24 26 27 28 27 27 27 28 29 29 28 28 29 30 30 29 30 30 30 30 29 29 28 27 25 24 23 22 21 20 18 17 17 16 15 14
10 10 11 11 12 12 13 14 14 14 14 15 15 15 15 15 15 15 15 16 16 17 18 19 20 21 21 21 20 19 20 20 20 19 18 18 17 16 17 17 17 17 18 18 18 18 19 19 20 22 24 26 28 28 28 28 28 29 30 30 30 31 32 32 32 32 33 33 33 32 31 30 29 28 26 25 24 24 22 20 19 18 18 17 16
11 11 11 12 12 12 13 14 15 16 16 16 16 16 16 16 16 16 16 16 17 17 18 20 20 21 22 22 22 21 20 20 20 19 19 19 17 17 17 18 18 18 19 19 19 19 19 20 20 21 23 25 26 28 29 30 29 29 29 30 32 33 34 34 35 36 37 37 36 34 33 32 31 30 29 28 26 26 25 23 21 20 19 19 18
13 13 13 13 14 14 14 15 16 17 17 17 17 18 18 18 17 17 17 17 18 18 19 20 21 21 22 23 23 23 22 21 21 20 19 19 18 18 18 18 18 18 19 20 20 21 21 21 21 22 22 23 24 26 28 30 30 30 29 30 32 34 35 36 37 39 39 38 36 35 35 33 32 32 31 30 29 27 26 25 24 22 21 20 20
16 16 16 16 17 17 17 18 18 18 19 19 19 19 19 19 19 18 18 19 19 20 20 21 21 22 22 23 23 24 24 23 23 22 21 20 19 19 19 19 19 19 19 21 21 22 22 23 23 23 23 23 24 25 27 29 30 31 31 31 32 34 36 38 39 39 38 37 37 37 36 35 34 33 33 32 31 29 28 27 26 25 23 22 21
20 20 20 20 21 21 21 21 21 21 21 21 20 20 20 20 20 19 19 19 20 21 21 22 22 23 23 23 23 24 24 25 24 24 23 22 21 20 20 21 21 21 20 21 22 23 23 23 24 24 25 25 25 25 26 28 29 30 31 33 34 35 36 38 39 39 38 39 39 39 37 37 36 36 35 34 33 32 30 29 28 27 26 25 23
22 22 23 23 23 23 24 24 24 24 23 23 22 21 20 20 20 20 20 20 20 21 22 23 24 25 25 25 25 24 25 25 25 25 25 24 23 22 21 22 22 22 22 22 23 23 24 24 24 25 25 26 26 26 26 28 29 30 31 33 35 37 38 39 39 39 40 40 41 41 40 39 38 38 38 37 35 34 33 31 30 30 29 28 26
23 24 24 24 24 24 24 25 25 24 24 23 22 21 20 20 20 20 20 21 21 22 22 23 25 26 27 27 26 26 26 26 26 26 26 26 25 23 23 22 23 23 23 24 24 23 24 24 25 26 26 27 27 27 27 28 29 30 31 32 34 36 38 39 39 39 40 41 42 42 41 41 40 40 40 39 38 36 35 34 33 31 31 30 29
25 25 25 25 25 25 25 25 25 24 24 23 22 21 20 20 20 20 21 22 22 23 23 24 25 27 27 28 28 28 28 27 27 26 26 26 26 26 25 24 24 23 23 25 26 25 25 25 25 26 27 28 29 29 29 29 29 30 31 33 33 35 37 39 40 40 40 41 43 43 42 42 43 42 42 42 41 39 37 36 35 34 33 32 32
26 26 26 26 25 25 25 25 24 23 23 23 22 21 20 19 20 21 21 22 23 24 25 25 26 28 29 29 29 29 29 29 28 27 27 26 26 27 26 25 26 26 25 25 27 27 27 27 27 28 28 29 30 31 32 32 31 32 32 33 34 35 35 37 40 41 41 41 43 44 44 44 44 44 44 43 43 42 40 39 38 37 35 34 34
26 26 26 26 26 26 25 24 23 22 22 22 22 22 21 20 20 21 22 23 24 25 26 27 28 29 30 31 31 31 31 31 30 29 28 27 27 27 26 25 26 27 28 28 29 29 30 30 30 30 30 30 30 31 33 34 34 34 34 35 35 35 36 36 38 41 42 42 42 44 45 46 46 46 46 46 45 44 43 41 40 39 38 37 35
26 27 27 27 27 26 25 23 22 22 22 22 22 22 22 21 22 23 24 25 26 27 28 29 30 31 32 32 33 33 33 33 32 31 30 29 28 27 26 26 25 26 28 30 31 32 32 32 32 31 31 31 31 31 32 34 36 36 36 37 37 37 36 37 38 39 41 43 43 43 45 47 48 47 47 48 47 46 45 43 42 42 41 40 38
26 27 28 28 27 26 25 23 22 23 22 22 22 22 22 23 23 24 25 26 27 28 30 31 32 33 33 33 34 34 35 35 34 32 31 30 29 28 27 26 26 27 29 30 32 33 33 33 33 33 32 32 32 32 32 33 35 37 39 39 40 40 39 38 38 39 40 42 44 44 44 46 48 48 48 48 49 48 47 46 45 45 43 42 41
27 28 28 28 27 26 24 23 23 23 23 22 22 23 23 24 25 26 27 28 29 30 31 32 33 34 34 34 35 35 36 36 36 34 33 32 31 29 28 28 27 28 29 31 32 33 33 32 32 32 31 32 33 34 35 35 35 37 39 41 42 42 43 42 41 41 41 42 43 44 45 46 48 49 49 49 49 49 49 48 48 48 46 44 43
27 28 28 29 28 26 24 24 24 24 23 23 23 23 24 25 26 27 28 29 30 31 32 33 34 34 35 36 36 36 36 38 38 37 36 35 34 32 31 30 29 29 30 31 30 30 30 29 30 31 32 35 38 39 39 39 38 38 39 42 43 44 44 44 44 43 43 43 43 44 46 47 48 49 51 51 50 50 50 50 50 50 49 47 45
28 28 29 29 28 26 25 24 25 25 24 23 23 24 25 26 27 28 29 30 31 32 33 34 35 35 36 37 37 37 37 38 39 40 39 38 36 35 34 32 32 31 30 29 28 28 29 29 31 34 36 39 42 43 42 41 41 40 40 42 44 45 45 45 45 44 45 45 45 45 46 48 49 49 51 53 53 52 52 52 53 53 52 50 48
28 29 29 29 28 26 25 25 26 27 26 25 24 25 26 27 28 29 30 31 32 33 34 35 35 36 37 37 37 37 38 39 40 41 41 39 37 36 35 35 35 33 28 25 25 29 31 33 34 37 40 42 43 43 43 42 42 42 42 43 44 46 47 47 47 47 46 47 47 47 46 47 50 51 51 53 54 55 54 54 55 55 54 53 51
29 29 29 28 27 26 26 26 27 28 27 26 26 26 27 29 30 30 31 32 34 35 35 36 36 36 37 37 38 38 39 40 40 40 40 39 37 36 36 37 36 34 30 26 26 30 34 36 37 39 42 44 44 43 42 42 42 42 43 44 45 47 47 47 47 48 48 48 49 49 49 48 49 51 53 53 54 56 56 56 56 57 56 55 54
30 29 29 28 27 27 26 27 28 28 28 27 27 27 28 29 30 31 32 34 36 36 36 37 37 37 38 38 39 39 38 38 38 39 39 39 38 38 38 38 37 35 34 31 30 33 36 37 39 41 43 43 42 41 41 41 42 42 42 44 45 46 47 47 46 46 48 49 50 51 51 50 50 51 53 54 55 56 58 58 58 58 58 57 55
30 30 29 27 27 27 27 27 27 28 28 28 28 28 29 30 31 32 34 35 37 37 38 38 38 39 39 39 39 39 37 37 37 38 40 40 40 40 39 39 37 37 36 35 35 36 38 39 40 41 42 41 39 38 37 38 40 41 41 42 43 44 45 45 44 43 45 47 49 51 53 53 52 52 52 54 56 57 58 59 59 59 60 59 57
31 31 30 28 26 27 27 27 27 28 28 28 28 29 30 30 32 33 35 36 37 38 39 39 40 41 40 40 40 38 38 38 39 40 41 41 41 40 39 37 37 38 38 38 38 39 39 40 41 41 41 39 36 35 35 35 38 40 39 40 41 42 42 42 43 42 43 44 46 49 52 54 55 54 53 54 56 58 60 60 60 60 61 61 60
32 33 32 30 28 27 28 28 29 29 29 28 29 30 30 31 33 34 35 37 38 39 40 41 41 40 39 38 38 38 39 41 41 41 42 42 42 39 37 36 37 38 40 41 42 41 40 39 39 40 39 37 34 34 35 35 36 38 38 39 39 39 39 40 41 41 42 43 44 46 49 53 56 57 56 55 56 59 60 61 62 62 62 62 62
32 34 34 33 31 29 30 30 30 29 29 29 30 30 31 32 34 36 37 39 40 41 40 39 37 36 36 37 38 40 41 42 42 43 43 42 41 38 36 36 38 40 43 45 45 45 43 39 37 37 37 36 35 35 36 36 36 37 37 38 39 39 39 39 40 41 42 44 45 45 47 50 54 58 59 58 57 59 61 62 63 63 62 62 63
34 34 35 35 34 32 32 30 29 29 29 30 30 31 32 33 35 37 39 39 39 39 38 37 36 37 37 38 39 40 42 43 44 44 43 41 40 39 39 40 43 45 47 48 48 47 45 42 38 36 36 36 36 37 37 37 36 37 37 38 38 38 38 40 41 41 42 44 46 47 47 48 51 55 59 61 60 59 61 63 64 64 64 63 63
34 33 34 35 36 34 32 29 28 29 30 30 31 31 32 33 35 37 38 38 38 39 39 38 38 38 38 38 39 41 44 45 45 44 42 41 40 42 43 45 47 49 49 49 48 48 47 45 42 38 36 37 37 38 39 38 36 36 37 38 38 38 38 40 41 42 43 45 46 47 48 48 49 52 57 61 62 61 61 63 64 64 65 65 64
33 34 34 36 36 34 30 28 28 30 30 30 30 31 32 34 36 37 37 38 39 41 40 39 38 38 39 40 41 45 47 46 44 44 43 41 41 43 45 47 48 49 48 48 48 48 48 47 45 41 37 37 38 38 40 39 37 36 37 37 37 38 39 40 41 43 45 46 47 48 48 48 49 51 54 58 63 64 63 63 64 65 65 66 65
34 35 36 36 36 33 29 29 31 32 31 30 31 31 33 35 36 37 37 39 40 40 40 39 39 39 40 42 46 48 47 46 45 44 43 42 42 43 45 46 47 47 48 48 49 49 49 49 47 44 39 37 38 39 40 40 39 38 38 37 36 38 41 42 42 44 47 49 50 50 49 49 49 50 53 56 61 65 66 65 64 65 65 66 66
36 36 36 35 35 32 29 31 33 33 31 30 31 33 34 36 36 37 37 39 40 40 39 38 39 40 43 45 47 47 46 46 46 45 43 43 42 43 44 46 46 47 48 49 50 50 50 50 48 46 41 38 38 39 40 40 40 39 39 38 38 39 41 43 43 46 49 52 53 53 52 51 50 50 52 55 58 63 67 67 66 65 66 66 67
36 36 34 33 34 31 28 31 33 31 29 30 32 34 35 36 37 37 38 39 39 38 38 38 40 42 44 46 46 46 46 46 46 45 44 43 42 43 44 46 47 48 49 50 50 50 50 50 49 46 42 38 37 39 39 40 40 40 39 39 40 40 42 43 44 46 50 53 57 57 56 55 54 52 52 54 57 61 67 69 68 66 66 67 67
36 33 32 33 33 30 29 31 32 30 29 30 33 34 36 37 38 39 41 40 38 38 39 41 42 43 44 45 46 46 46 46 46 45 44 43 43 43 44 46 48 49 50 50 49 49 49 49 48 45 41 37 36 38 38 39 39 39 40 41 41 41 42 43 43 46 50 55 59 59 58 58 57 54 52 53 56 59 64 70 70 67 66 66 67
35 33 33 33 30 28 30 33 32 30 30 31 33 34 36 38 39 41 41 39 39 41 43 43 44 44 45 45 45 45 45 47 47 45 44 44 44 44 45 47 48 49 50 49 48 48 48 48 46 43 40 36 35 36 38 38 38 38 40 42 42 43 45 45 44 45 50 55 59 59 57 57 57 54 52 53 56 59 62 68 71 70 66 66 66
35 34 32 29 28 30 34 35 32 31 31 33 34 35 37 38 39 40 40 40 42 44 45 44 45 46 46 46 45 45 46 47 46 44 44 43 44 45 46 47 49 50 49 48 46 47 47 46 42 39 37 36 35 36 37 38 38 39 41 42 43 45 47 47 46 46 49 54 59 58 55 55 56 53 51 51 55 59 61 65 71 71 68 66 66
32 30 28 27 30 34 36 34 31 31 32 34 35 36 37 38 40 41 42 43 44 45 44 45 47 48 48 48 48 47 47 47 45 44 43 43 44 45 47 48 49 49 47 46 45 45 45 43 39 36 36 36 36 36 36 37 38 39 41 42 43 45 47 47 46 46 48 52 58 59 54 52 55 54 49 50 55 59 60 63 69 72 69 66 66
25 24 26 29 32 34 35 33 31 31 32 34 35 36 38 39 41 42 43 44 45 45 46 48 49 49 49 49 49 49 49 48 46 44 43 43 44 45 47 48 48 47 45 44 45 45 43 40 37 35 35 36 36 36 36 37 38 39 40 41 44 46 47 46 46 45 45 48 55 58 52 49 54 54 49 50 55 58 60 62 66 71 70 67 66
23 27 31 32 33 34 34 33 32 32 33 34 35 36 39 41 43 43 44 44 44 45 47 48 49 49 50 50 50 48 47 46 45 44 44 44 44 45 46 46 45 44 44 44 44 43 40 37 35 34 35 35 36 36 36 36 36 37 39 42 47 49 47 44 43 41 40 43 51 57 53 49 52 53 51 53 57 58 59 61 65 69 70 68 65
29 32 34 33 34 34 33 33 32 32 32 33 35 37 40 43 44 43 43 44 44 45 47 48 49 50 50 49 48 47 46 45 44 44 45 44 44 44 44 44 44 43 43 43 42 39 37 35 34 34 35 34 35 35 35 35 34 36 39 43 48 50 47 43 40 35 34 38 46 54 54 49 48 51 52 53 56 57 58 60 63 67 70 68 65
33 34 34 33 32 32 32 33 32 30 31 34 36 39 41 43 43 43 43 44 45 46 47 48 49 49 48 47 46 46 45 45 44 44 44 43 43 42 42 42 42 42 42 40 38 36 34 34 34 34 34 33 33 33 33 33 34 37 40 44 48 50 47 43 37 30 27 31 39 48 51 47 45 48 51 52 53 56 57 60 62 66 68 68 66
33 34 34 32 30 30 32 32 31 30 34 37 39 41 43 43 43 42 43 44 45 46 47 48 49 48 47 46 45 45 45 44 43 43 42 41 40 40 40 41 41 41 39 37 34 33 33 33 34 33 32 32 32 31 31 33 35 39 42 45 49 51 49 43 36 27 22 23 33 43 46 43 42 45 47 48 50 52 56 59 62 64 67 67 65
30 32 33 33 32 32 33 33 32 34 37 41 43 45 45 43 42 42 43 44 45 47 48 48 47 46 45 44 45 45 45 43 41 40 39 39 39 39 39 39 39 38 35 33 31 31 32 32 32 32 32 32 31 30 30 33 36 39 42 45 50 52 50 43 34 28 21 19 28 40 43 39 38 40 43 44 46 49 54 58 61 62 65 66 65
Wind_Direction
28 26 26 27 26 25 23 20 22 25 27 27 25 22 19 17 16 16 14 12 11 11 11 10 5 359 352 346 340 332 321 314 308 298 287 279 276 275 271 267 264 264 266 272 266 251 245 245 246 248 246 242 236 231 228 225 226 228 228 229 230 231 236 238 238 238 241 244 245 249 250 250 250 249 241 234 238 242 234 226 211 193 184 181 178
28 26 24 24 19 17 17 15 16 20 22 23 24 24 22 19 17 17 18 18 18 18 15 12 7 2 355 348 344 338 328 322 315 309 299 287 279 277 275 270 266 265 265 268 274 268 257 251 248 245 242 242 239 236 233 228 224 225 226 228 229 230 231 235 237 237 238 242 245 247 248 249 250 252 247 237 234 236 237 234 222 201 184 180 181
28 27 23 19 10 7 9 8 10 14 16 17 20 23 24 23 22 22 22 21 21 21 19 18 15 11 5 358 351 343 335 327 321 317 311 300 287 281 280 277 270 267 266 267 270 273 268 258 250 241 235 236 238 237 237 235 230 225 224 226 228 230 230 231 234 237 237 238 243 246 246 246 247 251 251 244 236 231 232 236 235 213 189 181 182
24 23 22 17 7 4 7 6 4 8 12 14 16 18 19 19 20 19 19 19 17 15 16 16 15 14 11 6 0 355 347 339 329 321 316 308 295 286 284 282 275 270 270 269 266 265 265 263 256 247 237 234 238 239 238 237 235 230 226 224 225 228 231 231 232 234 236 237 240 245 246 245 244 247 252 251 242 233 229 229 239 228 203 187 183
16 14 16 14 6 3 8 7 0 3 7 7 11 13 13 14 13 12 10 11 10 8 8 8 8 9 7 5 3 0 357 352 343 330 320 311 301 292 286 283 279 276 275 274 271 264 261 261 260 255 246 239 237 240 241 239 237 233 230 227 225 225 228 231 232 233 234 236 238 242 245 245 243 243 248 253 250 241 232 224 230 233 219 201 190
2 1 359 3 3 359 5 7 357 359 3 360 3 6 7 8 8 6 4 3 3 1 0 1 1 1 359 359 359 358 358 357 353 345 333 319 308 299 291 284 280 278 277 276 274 269 263 260 261 260 255 249 242 239 240 241 240 237 234 232 229 226 226 227 230 232 234 235 236 239 244 246 245 243 244 249 252 248 238 228 221 221 223 214 202
347 349 346 350 358 356 360 1 352 355 358 354 356 358 359 0 359 359 360 358 357 355 354 355 355 354 354 353 353 354 354 355 355 352 346 335 322 308 297 289 284 281 279 278 275 272 268 262 261 261 259 257 250 244 242 242 243 241 238 238 237 235 232 230 231 233 234 235 235 237 242 246 248 246 243 244 248 249 244 236 225 215 216 214 208
336 341 338 338 347 347 347 346 345 347 348 348 350 350 351 351 350 351 352 351 349 348 348 349 350 349 349 348 349 349 350 351 351 351 350 346 338 325 310 298 290 285 282 280 277 275 273 269 266 263 263 262 257 250 245 242 241 241 240 241 241 242 240 238 237 237 237 237 238 237 239 244 248 249 247 244 244 245 245 241 232 221 213 211 210
329 334 334 334 337 337 336 336 337 337 337 341 341 339 339 338 338 340 341 341 339 339 340 341 342 343 343 343 344 345 346 347 347 347 347 347 344 339 329 315 303 293 286 282 279 276 273 271 268 267 266 266 264 259 251 244 241 241 241 239 237 238 240 239 239 239 240 240 240 240 240 241 246 249 250 247 244 243 243 240 235 228 218 212 210
324 330 334 333 331 331 331 329 329 330 332 332 329 327 327 326 328 330 331 331 330 330 332 334 335 336 337 337 338 340 341 342 343 343 343 343 343 340 337 332 322 309 297 288 282 277 274 270 267 266 265 264 264 263 259 255 252 245 241 240 236 235 237 239 240 242 242 243 243 243 242 242 244 247 250 250 246 244 243 240 235 230 224 217 211
321 325 327 326 326 325 324 323 324 326 325 323 320 320 322 323 325 325 326 326 325 326 328 330 330 331 331 332 334 334 335 336 339 340 339 338 337 336 336 335 331 324 315 304 292 284 278 274 269 265 263 262 261 261 262 263 261 253 245 243 241 239 238 238 239 241 242 242 244 244 243 242 242 244 247 250 248 245 243 242 237 231 226 220 214
316 317 316 317 319 319 318 319 320 319 317 316 317 318 320 321 322 322 323 324 325 326 327 328 328 327 327 328 329 329 329 331 334 335 334 333 332 330 330 329 328 327 324 319 310 299 289 281 276 270 265 263 262 262 263 261 260 257 251 247 245 244 242 239 238 238 238 239 241 244 244 242 241 241 243 247 248 246 243 242 241 236 229 222 217
310 309 309 312 313 313 313 312 310 310 310 312 313 315 315 316 316 317 319 322 324 325 327 327 326 324 323 323 324 324 324 326 328 329 328 327 326 324 323 323 323 323 322 321 318 313 305 295 287 279 272 268 265 265 265 262 260 258 256 253 249 247 245 242 239 238 238 237 236 239 242 243 241 239 239 242 246 246 243 241 241 239 234 227 220
305 304 305 306 306 305 303 303 304 305 307 308 309 309 310 311 313 315 318 321 323 325 327 326 325 323 321 321 320 320 321 321 323 324 323 321 319 318 317 317 318 318 318 318 317 314 310 305 298 290 283 276 270 267 266 265 263 261 259 256 253 250 247 244 241 239 238 236 234 233 235 238 240 239 238 238 241 245 245 241 239 238 236 232 227
302 301 302 302 301 302 303 305 307 307 307 307 307 308 309 311 314 317 319 322 324 326 327 326 325 323 321 320 319 319 319 317 318 319 318 316 314 313 311 311 313 314 316 316 316 314 312 308 304 298 292 285 278 272 267 264 263 262 260 257 254 252 250 246 242 240 238 236 235 234 233 234 236 238 238 237 237 241 244 243 241 238 236 233 230
299 298 297 298 301 305 309 311 311 310 309 308 307 308 310 312 315 318 320 323 325 326 327 326 325 323 322 320 319 318 317 315 315 314 313 311 311 309 307 307 308 310 312 313 313 313 312 309 305 302 297 291 284 277 271 266 262 260 259 257 254 253 252 249 244 242 241 239 238 237 236 235 235 236 237 238 236 237 241 244 243 241 237 234 231
297 297 298 302 306 309 312 313 312 312 312 311 310 310 311 313 314 316 319 322 324 325 325 325 324 324 323 321 318 316 315 313 312 311 310 309 308 306 304 304 305 307 309 311 312 312 310 308 305 302 298 294 289 282 275 270 264 260 257 254 253 252 252 251 248 247 246 244 242 240 238 237 236 236 237 238 237 235 236 240 243 243 240 236 233
298 301 304 307 308 309 310 312 313 314 315 314 313 313 313 313 313 314 317 320 322 323 323 323 323 323 322 321 318 316 313 311 310 309 309 309 308 306 303 304 305 306 309 311 312 312 311 308 306 303 299 295 291 285 279 273 268 263 259 254 252 250 250 251 251 250 248 245 244 243 241 239 237 237 237 237 237 236 234 234 238 241 242 239 236
298 299 300 301 302 304 307 310 312 313 313 313 312 312 311 311 312 313 316 319 320 320 321 322 323 323 323 321 319 317 314 311 309 308 307 308 308 305 303 304 305 307 309 310 311 312 311 309 307 305 302 298 294 289 282 276 270 266 262 257 253 250 250 250 251 250 248 246 244 242 241 239 238 237 238 237 237 238 237 234 234 236 239 240 238
292 292 293 294 297 300 304 308 310 310 310 309 308 308 309 310 312 314 316 317 317 318 319 321 322 322 322 322 320 318 316 312 309 307 306 306 306 305 303 302 303 306 308 309 310 310 308 306 305 303 302 300 297 292 286 279 273 268 264 260 256 252 250 250 250 249 248 247 245 243 241 240 238 237 238 237 236 236 237 237 236 234 235 237 238
290 291 291 293 295 298 302 305 308 308 308 307 305 306 308 310 312 313 314 315 316 316 317 319 320 321 321 321 320 319 317 314 311 309 306 305 305 305 303 302 303 305 306 308 309 308 306 303 301 298 297 296 295 293 289 283 276 269 265 263 260 256 252 250 249 248 247 246 246 244 242 240 239 237 237 237 236 235 235 237 237 236 235 235 236
291 291 291 291 293 297 301 304 306 306 307 307 305 306 308 311 312 313 313 314 314 314 315 316 317 319 320 320 320 319 318 316 313 310 308 306 304 303 302 301 303 306 307 307 307 306 304 302 299 296 294 291 290 289 287 284 279 272 266 264 262 259 255 252 249 248 247 246 245 244 242 240 238 237 236 237 237 236 235 235 237 237 235 235 235
293 293 294 294 295 297 300 303 304 305 307 308 307 308 310 312 312 312 313 313 313 313 313 314 315 317 319 319 320 319 318 316 314 311 309 306 303 302 301 299 300 305 307 307 307 306 304 301 299 296 293 290 287 285 283 282 280 274 268 264 262 260 258 255 252 249 246 245 244 243 242 240 238 237 235 236 237 237 236 236 236 237 236 235 234
296 297 296 296 296 297 299 301 303 304 306 308 308 310 311 312 312 312 312 312 312 312 312 313 314 316 317 318 319 319 318 317 315 312 309 305 303 302 301 299 298 301 304 305 306 305 304 302 300 297 294 291 288 284 281 279 278 275 270 265 262 261 259 256 254 251 248 246 244 243 242 240 239 237 235 234 235 236 237 236 236 236 237 236 235
296 297 296 296 296 297 298 299 300 303 305 307 309 311 312 312 312 312 312 313 312 312 311 312 313 314 315 317 317 318 317 316 314 312 309 306 304 302 300 299 299 300 302 302 303 303 303 302 301 299 297 294 291 287 283 279 276 273 270 266 263 262 261 259 255 253 250 247 244 242 242 241 239 238 236 234 234 234 235 235 236 236 236 237 236
296 296 296 296 297 297 297 298 300 303 306 308 310 311 312 312 312 312 312 312 311 310 310 310 311 312 314 315 316 316 316 315 313 312 309 306 304 301 299 298 299 300 301 301 301 301 301 301 301 301 300 299 296 293 288 283 278 274 270 267 264 262 261 260 257 253 250 248 245 242 241 241 239 238 237 236 235 234 234 234 234 235 235 236 237
296 296 296 297 298 299 299 300 302 305 307 308 309 310 311 311 311 311 311 310 309 309 308 308 310 312 314 315 315 315 315 315 313 311 309 306 303 300 298 298 299 300 300 300 298 298 298 300 302 303 304 303 300 296 291 286 281 275 270 267 265 263 261 260 258 255 251 248 247 243 240 239 239 238 237 236 236 235 233 233 233 234 234 234 235
296 296 296 297 299 301 300 300 304 307 307 307 308 309 310 310 310 310 310 309 308 308 308 309 312 313 314 315 315 315 315 315 313 311 309 306 303 300 298 298 299 300 300 298 296 297 297 299 302 304 304 303 300 294 290 286 281 276 270 266 264 262 260 258 257 256 253 248 246 245 242 239 237 237 236 236 236 235 233 232 233 233 233 232 232
294 294 295 296 298 300 297 298 304 307 306 307 308 309 310 310 310 310 309 308 308 309 310 311 313 314 314 314 314 315 315 315 313 311 310 307 303 299 298 299 300 301 298 295 296 298 299 300 302 304 305 304 300 294 288 284 280 276 271 266 263 261 259 257 256 256 255 251 246 244 243 240 237 236 235 235 235 234 233 232 231 232 233 232 232
292 291 292 293 295 296 293 294 302 305 305 306 308 310 311 310 310 310 310 310 310 311 312 313 313 313 313 313 313 314 315 315 313 311 310 308 305 301 300 300 301 300 297 293 297 301 300 302 304 305 305 304 300 295 289 283 279 276 271 266 263 261 259 258 256 255 254 252 248 245 243 241 238 236 235 234 234 234 233 232 231 231 232 232 232
289 289 290 291 292 292 290 292 299 303 305 306 308 309 310 309 309 310 311 312 312 312 313 313 313 313 312 312 312 312 314 315 314 313 311 308 305 303 301 300 299 297 294 292 299 304 302 302 305 305 304 301 298 293 288 284 280 275 271 267 264 262 260 259 257 255 254 252 249 246 243 241 240 237 235 233 233 233 233 232 231 230 230 231 232
287 288 288 289 290 290 289 291 298 303 305 306 307 308 309 309 310 312 313 314 313 313 313 313 313 313 312 311 310 310 311 313 314 313 311 308 304 302 301 298 295 293 292 293 300 306 305 303 305 304 302 300 295 289 286 283 281 277 274 270 267 264 262 260 258 256 254 252 250 247 244 241 239 238 236 233 232 233 233 232 232 231 230 230 230
288 289 289 289 288 288 287 290 298 303 304 305 307 307 308 310 312 313 314 314 313 313 313 313 312 312 310 309 308 306 307 311 312 311 310 308 305 302 299 295 292 291 292 294 299 305 305 304 304 302 300 298 292 286 284 282 280 279 277 274 271 268 265 262 260 258 256 253 251 248 246 243 240 238 237 235 232 232 232 232 232 231 230 229 229
287 288 288 288 286 285 286 289 297 303 304 304 305 306 308 311 313 314 314 313 313 312 312 312 312 311 310 307 306 304 306 310 310 308 309 308 305 300 296 292 290 290 291 294 297 301 303 302 302 300 298 295 289 284 282 280 278 277 276 274 272 270 267 265 262 260 259 256 254 251 247 245 242 239 237 236 233 231 231 232 232 231 230 229 229
286 286 286 286 285 284 287 290 295 301 302 301 303 307 310 313 314 315 315 313 312 311 311 311 312 312 310 307 305 305 307 309 309 308 308 307 303 298 294 291 289 290 292 295 297 300 301 300 298 297 295 291 286 282 281 279 276 274 272 271 270 269 268 266 264 262 261 259 257 254 251 247 244 241 237 235 234 232 231 230 231 231 230 229 229
287 285 283 285 285 285 288 289 292 297 299 301 305 308 311 314 315 315 314 312 312 312 311 309 308 309 308 307 306 307 308 309 308 307 307 304 299 294 291 290 289 291 294 296 297 298 298 296 295 294 292 287 282 280 280 279 277 274 271 269 268 267 267 267 265 263 262 261 259 256 253 250 246 243 239 236 234 233 231 230 230 230 230 229 229
287 284 283 284 285 285 285 285 290 296 299 301 305 308 311 314 314 312 310 310 311 312 310 307 305 305 305 306 306 307 309 309 308 307 305 302 296 292 290 289 290 292 294 296 296 296 295 293 292 293 291 286 281 279 279 278 276 274 272 270 269 267 266 266 266 265 263 261 259 257 254 252 249 246 242 238 235 233 232 231 229 229 229 229 229
287 285 283 283 283 283 280 281 290 296 298 301 304 307 311 311 310 308 306 307 309 311 310 307 304 302 302 303 306 308 309 309 308 307 305 301 296 291 289 289 290 292 293 294 294 293 292 291 292 293 291 287 282 278 278 277 275 272 270 269 269 269 268 266 266 266 265 262 260 258 255 253 251 248 245 240 236 233 232 231 230 228 228 229 229
287 287 283 281 283 283 278 281 290 296 297 300 304 307 309 308 307 306 304 305 308 310 310 306 303 301 301 302 306 308 309 309 308 306 303 300 296 292 290 290 291 291 292 292 292 292 291 291 292 293 293 289 282 278 277 277 276 273 270 267 267 268 268 267 265 265 265 264 262 260 257 254 251 249 248 243 238 234 232 231 230 228 227 227 228
285 288 285 283 285 282 278 283 291 294 296 300 304 305 306 306 306 306 305 306 309 310 309 306 303 302 302 303 306 307 308 308 307 305 302 299 296 293 291 290 291 290 291 292 291 291 291 291 292 295 296 290 283 278 276 276 277 276 274 271 267 266 267 267 266 265 264 264 262 260 259 257 253 249 248 246 241 235 232 231 230 228 227 226 226
288 290 286 286 287 281 278 285 291 293 295 299 302 303 304 306 307 307 307 308 309 309 309 307 304 303 304 306 308 309 309 309 307 305 302 299 296 294 292 290 290 290 291 291 291 291 291 292 294 297 297 290 282 277 276 277 278 278 278 275 272 270 269 268 268 268 267 265 262 260 258 258 255 251 247 246 243 238 233 230 229 228 226 225 225
294 291 284 285 286 280 280 287 291 294 297 298 300 302 304 306 307 308 309 308 309 310 310 309 308 308 308 309 310 311 310 309 307 305 303 300 297 294 291 289 290 290 291 291 291 291 292 293 296 298 296 289 282 278 278 279 280 281 280 279 276 275 274 271 270 270 270 268 265 261 259 258 257 253 248 245 244 240 234 230 229 228 226 225 224
291 286 280 281 279 277 282 289 293 297 299 300 301 303 304 305 306 309 310 309 310 311 312 311 311 311 311 312 312 312 310 309 307 306 303 299 296 293 290 289 290 291 292 292 292 292 293 296 298 298 294 288 282 280 280 281 282 283 283 282 282 281 280 277 272 270 270 270 267 262 260 260 258 254 248 245 243 240 235 231 228 227 226 225 224
286 281 277 277 277 281 287 290 293 296 299 301 302 302 302 303 306 310 311 310 310 311 312 312 312 313 314 315 315 313 311 309 308 306 303 299 295 293 292 291 292 293 293 293 293 293 295 298 299 296 291 287 284 283 283 284 285 286 286 286 286 285 284 282 277 272 272 272 268 263 261 261 261 256 249 244 242 240 236 231 228 226 225 225 224
281 278 277 280 284 287 288 289 292 296 299 300 299 299 301 303 307 311 311 309 310 312 312 313 314 316 317 317 317 315 312 311 310 308 305 300 297 295 294 294 294 294 294 294 294 294 296 299 298 293 290 288 286 285 286 287 288 288 288 288 289 289 287 285 282 276 275 274 270 264 261 260 260 257 250 242 240 240 236 231 227 225 224 223 223
277 281 287 291 290 288 287 289 292 294 295 295 296 298 301 304 308 309 309 309 310 312 314 315 316 317 318 318 317 315 313 312 311 310 306 302 299 297 296 296 295 295 296 296 296 296 299 300 297 292 290 289 288 289 290 291 291 292 293 294 295 294 291 288 284 280 278 276 271 266 262 259 258 256 249 241 238 237 236 230 226 224 223 222 222
282 292 296 295 290 287 287 288 289 290 291 293 296 300 303 305 306 306 308 310 312 313 314 315 317 318 318 317 316 314 313 312 311 309 306 303 301 299 297 296 296 297 298 298 298 299 301 300 296 292 290 291 292 293 294 295 295 297 300 302 302 299 295 289 285 283 281 279 273 266 261 260 258 254 247 241 237 235 234 230 225 222 221 221 221
288 294 294 291 287 285 285 285 286 289 294 297 300 302 304 305 304 305 308 311 312 313 315 316 318 318 317 315 315 314 313 312 310 308 306 304 301 299 297 297 298 299 300 299 300 301 300 297 294 292 292 293 294 296 296 297 299 302 306 308 307 305 301 293 289 288 285 279 275 269 263 260 258 252 246 242 237 234 231 228 223 221 220 219 219
288 291 289 285 281 280 282 284 287 293 298 301 301 302 305 306 305 305 308 310 312 314 315 317 318 316 315 315 314 314 313 312 310 308 306 304 301 298 298 299 301 301 302 302 302 300 297 294 293 293 294 295 296 297 298 300 304 307 310 313 313 311 308 301 295 292 285 276 273 271 266 262 257 249 244 242 238 233 229 226 221 219 218 218 218
287 287 285 281 278 280 282 285 288 294 299 301 301 303 306 306 305 306 308 310 312 314 316 317 317 315 314 314 314 314 314 312 310 309 307 304 302 301 301 302 303 304 304 303 300 296 294 293 294 295 296 297 298 299 300 303 307 311 315 318 318 315 313 308 299 291 280 267 268 271 268 262 255 248 243 243 238 232 228 224 219 217 216 216 217
290 289 288 284 281 281 283 284 288 293 297 299 301 304 305 305 305 307 309 311 313 315 316 316 315 314 314 314 314 314 313 312 311 309 307 305 305 305 305 305 305 305 304 300 295 293 293 294 296 298 299 300 300 301 303 306 310 315 319 321 320 317 314 311 303 291 279 260 261 269 269 263 255 247 243 242 237 230 226 222 218 215 213 214 216
Height
5918 5918 5917 5917 5916 5915 5915 5914 5914 5913 5913 5913 5913 5912 5911 5911 5910 5909 5908 5907 5907 5906 5905 5904 5904 5903 5903 5902 5902 5901 5901 5900 5899 5899 5899 5899 5898 5898 5899 5899 5900 5900 5899 5899 5899 5900 5900 5901 5901 5903 5904 5904 5904 5903 5903 5904 5905 5906 5907 5907 5908 5909 5910 5911 5911 5911 5911 5911 5912 5913 5913 5914 5914 5914 5914 5913 5912 5912 5911 5911 5910 5910 5910 5910 5910
5919 5918 5918 5917 5916 5915 5915 5915 5914 5914 5913 5913 5913 5912 5911 5910 5910 5909 5908 5907 5906 5906 5905 5904 5904 5903 5902 5902 5901 5901 5900 5900 5899 5898 5898 5897 5897 5897 5897 5897 5897 5897 5897 5897 5898 5899 5899 5899 5899 5900 5902 5903 5903 5903 5903 5902 5903 5904 5905 5906 5906 5907 5908 5909 5910 5910 5910 5910 5911 5911 5912 5913 5913 5914 5913 5913 5912 5912 5911 5911 5910 5910 5910 5910 5910
5919 5919 5918 5918 5917 5916 5916 5915 5915 5914 5914 5913 5913 5912 5911 5910 5910 5909 5908 5907 5907 5906 5905 5905 5904 5903 5902 5902 5901 5900 5900 5899 5898 5898 5897 5896 5896 5896 5895 5895 5895 5895 5895 5896 5897 5897 5898 5897 5897 5898 5899 5900 5901 5902 5902 5902 5902 5902 5903 5904 5905 5905 5906 5907 5908 5909 5909 5909 5910 5910 5911 5912 5912 5913 5913 5912 5912 5911 5911 5911 5910 5910 5910 5910 5910
5919 5919 5919 5918 5918 5917 5916 5916 5915 5915 5914 5913 5912 5912 5911 5910 5909 5909 5909 5908 5907 5906 5906 5905 5904 5903 5902 5902 5901 5900 5899 5898 5897 5897 5896 5896 5895 5895 5894 5894 5894 5894 5894 5895 5896 5896 5896 5895 5896 5896 5898 5899 5899 5899 5900 5901 5901 5901 5901 5902 5903 5904 5905 5905 5906 5907 5908 5908 5908 5909 5910 5910 5911 5912 5912 5912 5911 5911 5910 5910 5910 5910 5910 5910 5910
5919 5919 5919 5918 5918 5918 5917 5916 5916 5915 5914 5913 5912 5911 5911 5910 5910 5909 5909 5909 5908 5907 5906 5905 5904 5903 5903 5902 5901 5900 5899 5898 5897 5896 5895 5894 5894 5894 5893 5893 5893 5893 5893 5894 5894 5894 5894 5895 5895 5896 5896 5897 5897 5897 5898 5899 5899 5899 5899 5900 5900 5901 5902 5904 5905 5906 5906 5907 5907 5908 5908 5909 5910 5910 5911 5911 5911 5911 5910 5910 5910 5910 5910 5910 5910
5919 5919 5919 5918 5918 5918 5917 5917 5916 5915 5914 5913 5912 5912 5911 5910 5910 5910 5909 5909 5908 5907 5906 5906 5905 5904 5903 5902 5901 5900 5899 5897 5896 5895 5894 5893 5893 5893 5892 5892 5892 5892 5892 5892 5892 5892 5893 5894 5894 5894 5894 5894 5894 5895 5896 5897 5898 5898 5899 5899 5899 5899 5900 5901 5903 5904 5905 5905 5906 5906 5907 5908 5909 5909 5910 5910 5911 5910 5910 5909 5909 5909 5910 5910 5910
5919 5919 5919 5918 5918 5918 5917 5917 5916 5915 5914 5913 5912 5912 5911 5910 5910 5910 5909 5908 5907 5906 5906 5905 5904 5904 5903 5902 5901 5899 5898 5897 5896 5895 5894 5893 5892 5891 5891 5890 5890 5890 5890 5890 5890 5890 5891 5892 5892 5892 5892 5892 5892 5892 5894 5896 5897 5898 5899 5899 5899 5900 5901 5901 5901 5902 5903 5904 5905 5905 5906 5907 5907 5908 5909 5909 5910 5910 5910 5909 5909 5909 5909 5909 5910
5918 5919 5919 5919 5918 5917 5916 5916 5916 5915 5914 5913 5912 5912 5911 5910 5910 5909 5908 5907 5907 5906 5905 5904 5903 5903 5902 5901 5900 5899 5898 5897 5896 5895 5893 5892 5891 5890 5889 5889 5888 5888 5888 5888 5888 5888 5889 5890 5891 5890 5890 5890 5889 5890 5891 5892 5893 5895 5898 5899 5899 5900 5901 5901 5901 5902 5902 5903 5904 5904 5905 5905 5906 5907 5908 5908 5909 5909 5909 5909 5909 5908 5908 5909 5909
5918 5918 5918 5918 5917 5916 5915 5915 5915 5914 5913 5912 5912 5912 5911 5911 5910 5909 5908 5907 5906 5905 5904 5904 5903 5902 5901 5900 5899 5898 5897 5896 5895 5894 5893 5892 5890 5889 5888 5887 5887 5886 5886 5886 5886 5886 5886 5887 5888 5888 5888 5888 5887 5888 5888 5888 5890 5894 5896 5896 5896 5896 5896 5897 5899 5900 5901 5902 5902 5903 5903 5904 5905 5906 5906 5907 5908 5908 5908 5908 5908 5908 5908 5908 5908
5917 5917 5917 5917 5916 5915 5915 5914 5914 5913 5912 5912 5911 5911 5911 5910 5910 5909 5908 5907 5905 5904 5904 5903 5902 5901 5900 5899 5898 5897 5896 5895 5895 5893 5892 5891 5890 5888 5887 5886 5886 5885 5884 5884 5883 5884 5884 5885 5886 5886 5886 5886 5886 5885 5886 5887 5889 5892 5893 5892 5892 5892 5893 5895 5897 5899 5900 5901 5901 5902 5902 5903 5903 5904 5905 5906 5906 5907 5907 5907 5907 5907 5907 5908 5908
5917 5916 5915 5915 5915 5914 5914 5913 5913 5912 5912 5912 5911 5911 5910 5909 5909 5908 5907 5906 5905 5904 5903 5902 5901 5900 5899 5898 5897 5896 5895 5894 5893 5892 5891 5890 5889 5888 5887 5885 5884 5883 5883 5882 5882 5882 5882 5882 5883 5883 5884 5884 5884 5883 5884 5886 5887 5888 5888 5888 5889 5890 5891 5893 5894 5896 5898 5899 5899 5900 5900 5901 5901 5902 5903 5904 5905 5905 5906 5906 5906 5906 5907 5907 5907
5916 5915 5915 5914 5914 5913 5913 5912 5912 5912 5912 5911 5910 5909 5909 5908 5907 5907 5906 5905 5903 5902 5901 5900 5899 5898 5897 5896 5895 5894 5893 5893 5892 5891 5890 5889 5888 5887 5885 5884 5883 5882 5881 5881 5880 5880 5879 5880 5880 5880 5881 5881 5881 5881 5882 5884 5884 5884 5885 5886 5886 5888 5889 5890 5891 5892 5894 5895 5896 5898 5898 5899 5899 5900 5901 5902 5903 5903 5904 5905 5905 5905 5905 5906 5906
5915 5915 5914 5914 5913 5913 5912 5911 5911 5911 5910 5910 5909 5908 5907 5907 5906 5905 5904 5903 5902 5901 5900 5899 5898 5897 5896 5895 5894 5893 5891 5891 5890 5889 5888 5888 5887 5885 5884 5883 5882 5881 5880 5879 5878 5878 5877 5877 5877 5877 5877 5878 5878 5878 5879 5880 5880 5880 5882 5883 5884 5884 5886 5887 5888 5889 5890 5891 5892 5893 5895 5896 5896 5897 5898 5899 5901 5902 5902 5903 5903 5904 5904 5905 5905
5915 5914 5914 5913 5912 5912 5911 5911 5910 5909 5909 5908 5908 5907 5906 5905 5904 5904 5903 5902 5901 5900 5898 5897 5896 5895 5894 5893 5892 5891 5890 5888 5888 5887 5887 5886 5885 5884 5883 5882 5881 5880 5879 5878 5877 5876 5875 5874 5874 5874 5873 5874 5874 5874 5875 5875 5876 5877 5878 5879 5880 5881 5882 5883 5884 5885 5885 5886 5886 5888 5890 5892 5893 5894 5895 5896 5898 5899 5900 5901 5901 5902 5903 5903 5904
5914 5914 5913 5912 5912 5911 5911 5910 5909 5908 5907 5906 5906 5905 5904 5903 5902 5902 5901 5900 5899 5898 5897 5896 5895 5893 5892 5891 5890 5889 5888 5887 5886 5885 5884 5884 5883 5882 5881 5880 5879 5878 5877 5876 5875 5874 5873 5872 5872 5871 5871 5870 5871 5871 5871 5872 5872 5874 5875 5876 5877 5877 5878 5879 5880 5879 5879 5880 5882 5884 5886 5888 5889 5891 5892 5893 5894 5896 5898 5899 5900 5900 5901 5902 5902
5913 5913 5912 5912 5911 5910 5909 5908 5907 5907 5906 5905 5904 5903 5902 5901 5900 5899 5899 5898 5897 5896 5896 5894 5893 5892 5890 5889 5887 5886 5886 5885 5883 5883 5882 5881 5881 5880 5879 5878 5877 5876 5875 5874 5873 5872 5871 5871 5870 5869 5869 5868 5868 5868 5868 5869 5869 5870 5871 5872 5873 5873 5874 5874 5874 5874 5875 5878 5880 5882 5884 5885 5886 5888 5890 5891 5891 5893 5895 5897 5898 5898 5899 5900 5900
5912 5911 5911 5910 5908 5907 5907 5906 5905 5905 5904 5903 5901 5900 5900 5899 5898 5897 5896 5896 5895 5894 5894 5893 5892 5890 5889 5887 5886 5884 5883 5882 5881 5880 5880 5879 5879 5878 5877 5876 5875 5874 5874 5872 5872 5871 5870 5869 5868 5867 5866 5866 5865 5865 5865 5865 5866 5867 5867 5868 5869 5869 5869 5869 5869 5871 5874 5877 5878 5879 5881 5883 5884 5886 5887 5888 5889 5889 5891 5893 5895 5896 5897 5898 5899
5909 5908 5907 5907 5906 5905 5904 5904 5903 5902 5901 5900 5899 5898 5897 5897 5896 5895 5894 5893 5893 5892 5891 5890 5889 5888 5887 5886 5884 5883 5881 5880 5878 5877 5877 5876 5876 5875 5874 5873 5872 5872 5871 5870 5869 5868 5867 5866 5865 5864 5863 5863 5862 5862 5862 5862 5862 5863 5864 5864 5864 5865 5865 5865 5866 5869 5872 5873 5874 5876 5878 5880 5881 5882 5884 5885 5886 5887 5887 5889 5891 5893 5895 5896 5896
5907 5906 5906 5905 5904 5903 5902 5902 5901 5899 5898 5897 5897 5896 5895 5895 5894 5893 5892 5891 5890 5890 5889 5888 5886 5885 5884 5883 5882 5881 5880 5878 5876 5875 5873 5873 5873 5872 5871 5870 5869 5868 5868 5867 5866 5865 5864 5863 5862 5861 5860 5860 5859 5859 5858 5858 5858 5859 5859 5859 5860 5860 5861 5861 5862 5865 5867 5868 5869 5872 5874 5876 5877 5878 5880 5882 5884 5885 5886 5886 5887 5889 5891 5893 5894
5906 5906 5905 5904 5903 5902 5901 5900 5899 5898 5897 5896 5895 5894 5893 5892 5892 5891 5890 5889 5888 5887 5886 5885 5884 5883 5882 5880 5879 5878 5878 5876 5875 5873 5871 5870 5869 5869 5868 5867 5866 5865 5864 5863 5863 5862 5861 5860 5859 5858 5856 5856 5855 5854 5854 5854 5854 5854 5854 5854 5855 5855 5856 5857 5858 5860 5862 5863 5864 5866 5869 5871 5872 5874 5876 5878 5880 5881 5883 5884 5885 5886 5888 5889 5891
5904 5904 5903 5902 5902 5901 5900 5899 5898 5896 5895 5894 5893 5892 5891 5890 5889 5888 5887 5886 5885 5884 5883 5882 5881 5880 5879 5878 5877 5876 5875 5874 5873 5871 5870 5867 5866 5865 5864 5863 5862 5862 5861 5860 5859 5858 5857 5856 5856 5854 5853 5852 5851 5850 5849 5849 5849 5849 5849 5850 5850 5850 5851 5853 5854 5855 5856 5858 5859 5861 5864 5865 5867 5869 5872 5874 5875 5877 5878 5880 5881 5883 5884 5886 5887
5902 5901 5901 5900 5899 5899 5898 5896 5895 5894 5893 5892 5891 5890 5889 5888 5887 5886 5885 5884 5883 5882 5881 5880 5878 5877 5876 5875 5874 5872 5871 5871 5870 5869 5867 5865 5863 5861 5860 5859 5858 5857 5857 5856 5855 5854 5853 5852 5851 5850 5849 5848 5847 5846 5845 5844 5844 5844 5845 5845 5845 5845 5846 5847 5848 5850 5851 5852 5854 5856 5858 5860 5862 5865 5867 5869 5870 5872 5873 5875 5877 5878 5880 5882 5884
5899 5899 5898 5897 5897 5896 5895 5893 5892 5891 5890 5889 5888 5888 5886 5885 5884 5883 5882 5881 5880 5879 5878 5877 5876 5874 5873 5872 5870 5869 5868 5867 5866 5865 5864 5863 5861 5859 5857 5856 5854 5853 5852 5851 5851 5849 5848 5847 5846 5846 5845 5844 5843 5842 5841 5840 5839 5839 5839 5839 5840 5840 5841 5842 5843 5844 5846 5847 5849 5850 5852 5854 5856 5859 5861 5863 5865 5867 5869 5871 5873 5875 5877 5878 5880
5896 5895 5895 5894 5893 5893 5891 5890 5889 5888 5887 5886 5886 5885 5884 5883 5882 5880 5879 5878 5877 5876 5875 5874 5872 5871 5869 5868 5866 5865 5864 5863 5862 5861 5860 5859 5857 5856 5854 5852 5851 5850 5848 5847 5845 5844 5843 5842 5841 5840 5839 5839 5838 5837 5836 5835 5835 5834 5834 5834 5834 5835 5835 5837 5838 5839 5840 5841 5843 5845 5846 5848 5851 5853 5856 5858 5860 5862 5864 5866 5868 5871 5873 5875 5876
5893 5893 5892 5891 5891 5890 5888 5887 5886 5885 5884 5884 5883 5882 5881 5880 5879 5878 5876 5875 5874 5873 5872 5870 5869 5867 5866 5864 5863 5861 5860 5859 5857 5856 5855 5854 5853 5852 5850 5849 5847 5846 5844 5842 5841 5839 5838 5837 5836 5835 5834 5833 5832 5832 5831 5830 5830 5829 5829 5829 5829 5829 5830 5831 5832 5833 5834 5836 5837 5839 5841 5842 5845 5847 5850 5852 5854 5856 5859 5861 5863 5866 5869 5871 5873
5891 5890 5889 5889 5888 5887 5886 5885 5884 5883 5882 5881 5880 5879 5878 5877 5876 5875 5873 5872 5871 5870 5869 5867 5865 5864 5862 5861 5859 5857 5856 5854 5853 5852 5851 5850 5849 5848 5846 5845 5843 5841 5839 5838 5836 5834 5833 5831 5830 5829 5829 5828 5827 5826 5825 5824 5824 5823 5823 5823 5823 5823 5824 5824 5826 5827 5828 5830 5831 5833 5835 5836 5838 5841 5843 5846 5848 5851 5853 5855 5857 5860 5863 5866 5868
5888 5887 5887 5886 5886 5885 5884 5883 5881 5880 5879 5878 5877 5876 5876 5874 5873 5872 5870 5869 5868 5867 5865 5864 5862 5860 5859 5857 5855 5853 5852 5850 5849 5848 5846 5845 5844 5843 5841 5840 5839 5837 5834 5832 5831 5829 5827 5826 5825 5824 5823 5823 5822 5821 5820 5818 5818 5817 5817 5816 5816 5816 5817 5818 5818 5820 5822 5823 5825 5827 5829 5831 5832 5835 5837 5839 5842 5845 5847 5849 5851 5854 5857 5860 5863
5886 5885 5884 5883 5883 5883 5882 5880 5879 5878 5876 5875 5874 5873 5873 5871 5870 5869 5867 5866 5865 5863 5862 5860 5859 5857 5855 5854 5852 5850 5848 5846 5845 5843 5842 5840 5839 5837 5836 5835 5834 5832 5830 5827 5825 5823 5822 5821 5819 5818 5817 5817 5816 5814 5813 5812 5810 5810 5810 5810 5809 5809 5810 5811 5811 5813 5814 5816 5818 5820 5822 5824 5826 5828 5831 5833 5836 5838 5841 5843 5846 5848 5851 5854 5857
5883 5882 5881 5880 5880 5880 5879 5878 5876 5875 5873 5872 5871 5870 5869 5868 5866 5865 5864 5863 5861 5860 5859 5857 5855 5854 5852 5850 5848 5846 5844 5842 5840 5839 5837 5835 5834 5832 5831 5829 5828 5826 5825 5824 5821 5818 5816 5815 5814 5812 5810 5809 5808 5807 5805 5804 5803 5803 5803 5802 5802 5802 5802 5803 5804 5805 5807 5808 5810 5812 5815 5817 5819 5822 5824 5827 5829 5832 5834 5837 5840 5843 5845 5848 5851
5880 5879 5878 5877 5877 5876 5876 5875 5874 5872 5871 5869 5867 5866 5865 5864 5863 5862 5861 5859 5858 5857 5855 5854 5852 5850 5848 5847 5844 5842 5840 5838 5836 5835 5833 5831 5829 5828 5826 5824 5822 5821 5820 5819 5818 5815 5812 5809 5807 5806 5804 5802 5801 5799 5797 5796 5795 5794 5795 5795 5794 5794 5795 5795 5797 5798 5799 5801 5803 5805 5807 5809 5812 5814 5817 5819 5822 5825 5827 5830 5833 5836 5839 5842 5845
5877 5876 5875 5874 5873 5872 5872 5871 5870 5869 5867 5866 5864 5863 5861 5860 5859 5858 5857 5856 5854 5853 5852 5850 5848 5847 5845 5843 5841 5839 5837 5835 5833 5831 5829 5827 5825 5823 5821 5819 5817 5816 5814 5814 5813 5810 5807 5805 5802 5799 5798 5796 5794 5792 5789 5787 5786 5786 5787 5787 5786 5787 5787 5788 5789 5791 5792 5793 5794 5797 5799 5802 5804 5807 5809 5812 5815 5818 5820 5823 5826 5829 5832 5835 5838
5873 5873 5871 5870 5870 5869 5869 5868 5867 5866 5864 5863 5861 5859 5858 5857 5856 5855 5854 5852 5851 5849 5848 5846 5844 5843 5841 5839 5837 5835 5833 5832 5829 5827 5825 5823 5821 5819 5817 5814 5812 5811 5809 5808 5808 5805 5802 5800 5797 5794 5792 5790 5788 5785 5783 5781 5779 5779 5779 5779 5779 5779 5780 5781 5782 5783 5784 5785 5787 5789 5791 5794 5796 5799 5801 5804 5807 5810 5813 5816 5819 5822 5825 5828 5832
5871 5870 5868 5867 5867 5866 5865 5865 5864 5863 5861 5860 5858 5857 5855 5854 5853 5852 5850 5849 5847 5845 5844 5842 5840 5838 5836 5834 5832 5831 5830 5828 5825 5823 5821 5819 5816 5814 5812 5810 5808 5806 5803 5802 5802 5800 5796 5794 5792 5789 5785 5784 5782 5779 5778 5777 5774 5773 5773 5773 5772 5773 5774 5775 5775 5776 5777 5778 5780 5781 5783 5785 5788 5791 5793 5796 5799 5802 5805 5809 5812 5815 5818 5821 5825
5868 5867 5865 5864 5863 5863 5862 5862 5861 5859 5858 5856 5855 5853 5852 5851 5850 5848 5847 5845 5843 5841 5839 5837 5835 5833 5832 5830 5828 5827 5825 5823 5821 5818 5816 5814 5812 5809 5807 5805 5803 5800 5798 5796 5795 5794 5791 5788 5786 5783 5780 5778 5777 5774 5773 5772 5771 5768 5768 5767 5766 5767 5768 5768 5769 5770 5770 5771 5772 5774 5775 5777 5779 5782 5785 5788 5791 5794 5797 5801 5804 5807 5811 5814 5818
5865 5863 5862 5860 5860 5860 5859 5858 5857 5856 5854 5853 5851 5850 5848 5847 5845 5844 5843 5841 5839 5837 5835 5833 5831 5829 5827 5826 5824 5822 5820 5818 5816 5813 5811 5809 5807 5804 5802 5800 5798 5795 5792 5790 5788 5787 5786 5783 5780 5778 5775 5773 5771 5769 5767 5767 5766 5764 5763 5762 5761 5761 5762 5762 5763 5763 5764 5764 5765 5766 5767 5769 5771 5774 5777 5780 5783 5786 5789 5792 5796 5800 5803 5807 5811
5860 5859 5858 5857 5856 5856 5855 5855 5853 5852 5850 5848 5846 5845 5844 5843 5841 5840 5838 5837 5835 5833 5831 5829 5827 5825 5823 5821 5819 5817 5815 5813 5810 5808 5806 5804 5801 5799 5797 5794 5792 5789 5786 5784 5781 5779 5779 5778 5775 5773 5771 5768 5766 5763 5761 5761 5760 5759 5758 5757 5757 5757 5757 5755 5756 5757 5757 5757 5757 5758 5759 5761 5763 5765 5768 5771 5775 5778 5781 5784 5788 5792 5796 5800 5803
5855 5854 5854 5854 5853 5853 5852 5851 5849 5848 5846 5844 5842 5841 5840 5839 5838 5836 5835 5833 5831 5829 5827 5825 5823 5821 5819 5817 5814 5812 5810 5807 5805 5802 5800 5798 5796 5793 5791 5788 5785 5783 5780 5777 5775 5772 5771 5770 5769 5767 5765 5763 5761 5758 5755 5755 5755 5754 5752 5752 5752 5752 5751 5750 5749 5750 5750 5749 5749 5750 5751 5753 5754 5756 5759 5762 5766 5769 5772 5775 5779 5784 5788 5792 5796
5850 5850 5850 5850 5849 5849 5848 5847 5845 5844 5842 5841 5839 5838 5837 5835 5834 5833 5831 5829 5827 5825 5823 5821 5819 5817 5814 5812 5810 5807 5804 5801 5799 5796 5794 5792 5790 5787 5785 5782 5779 5776 5774 5770 5768 5765 5763 5762 5761 5760 5759 5757 5755 5752 5749 5748 5749 5748 5747 5747 5747 5746 5745 5745 5744 5743 5741 5741 5741 5742 5743 5745 5746 5748 5750 5753 5757 5760 5764 5767 5771 5775 5780 5784 5788
5846 5846 5845 5845 5845 5845 5844 5843 5841 5840 5839 5837 5835 5834 5833 5832 5830 5829 5827 5825 5823 5821 5818 5816 5814 5812 5810 5807 5804 5801 5798 5796 5793 5791 5788 5786 5784 5781 5778 5775 5772 5770 5767 5764 5761 5758 5755 5754 5753 5752 5752 5750 5748 5746 5743 5741 5741 5741 5741 5741 5742 5740 5738 5738 5738 5736 5734 5733 5733 5734 5735 5736 5738 5740 5742 5744 5748 5751 5755 5759 5762 5767 5771 5776 5781
5842 5842 5841 5840 5840 5840 5839 5838 5837 5836 5835 5833 5831 5830 5829 5827 5826 5825 5823 5821 5818 5816 5813 5811 5809 5807 5804 5801 5798 5795 5792 5789 5787 5784 5782 5780 5777 5774 5771 5768 5766 5763 5760 5757 5754 5751 5748 5746 5745 5744 5744 5744 5741 5739 5737 5735 5734 5734 5733 5734 5734 5733 5731 5731 5731 5729 5727 5725 5725 5725 5727 5727 5729 5731 5733 5735 5739 5742 5746 5750 5754 5758 5763 5768 5773
5837 5836 5836 5836 5835 5834 5834 5833 5832 5832 5830 5828 5827 5826 5825 5823 5822 5820 5818 5816 5813 5811 5808 5806 5804 5801 5798 5795 5792 5788 5785 5783 5780 5778 5776 5773 5770 5767 5764 5761 5759 5756 5753 5750 5747 5744 5742 5739 5738 5737 5737 5736 5734 5732 5730 5729 5727 5727 5726 5725 5726 5725 5724 5724 5724 5721 5718 5716 5715 5716 5718 5718 5719 5722 5724 5726 5729 5732 5736 5741 5745 5750 5755 5759 5764
5832 5831 5832 5831 5830 5829 5829 5829 5828 5827 5826 5824 5823 5822 5821 5819 5817 5815 5813 5810 5808 5806 5804 5801 5798 5795 5792 5789 5785 5782 5779 5776 5774 5772 5769 5766 5763 5760 5758 5755 5752 5749 5746 5744 5741 5738 5735 5733 5731 5730 5729 5728 5727 5725 5724 5723 5721 5720 5719 5717 5717 5717 5716 5717 5717 5714 5710 5705 5704 5707 5710 5709 5708 5712 5715 5718 5720 5723 5726 5731 5736 5741 5747 5751 5756
5828 5827 5827 5826 5825 5825 5825 5824 5823 5822 5821 5820 5819 5818 5816 5814 5812 5810 5807 5805 5802 5800 5798 5795 5792 5789 5786 5782 5779 5776 5772 5769 5767 5765 5762 5759 5756 5753 5751 5748 5745 5742 5739 5737 5735 5732 5729 5727 5725 5722 5721 5721 5721 5719 5718 5716 5715 5714 5712 5710 5710 5709 5708 5707 5708 5708 5702 5694 5692 5697 5701 5699 5697 5701 5706 5708 5710 5713 5716 5722 5727 5732 5738 5743 5749
5823 5823 5822 5821 5821 5821 5820 5820 5819 5817 5816 5814 5813 5813 5811 5809 5807 5804 5802 5799 5797 5795 5792 5789 5786 5783 5779 5776 5772 5769 5766 5763 5761 5759 5755 5752 5749 5746 5744 5741 5738 5735 5733 5731 5729 5726 5724 5721 5719 5716 5714 5714 5714 5713 5712 5710 5709 5708 5706 5704 5703 5701 5699 5697 5698 5699 5693 5685 5682 5686 5692 5691 5687 5689 5696 5699 5700 5703 5707 5712 5718 5724 5730 5736 5741
5819 5819 5818 5818 5818 5817 5816 5816 5814 5812 5810 5809 5808 5807 5806 5804 5801 5799 5796 5794 5791 5789 5786 5783 5780 5776 5773 5769 5766 5762 5759 5757 5754 5752 5749 5745 5742 5739 5736 5733 5731 5728 5726 5725 5722 5720 5718 5716 5713 5711 5708 5707 5707 5707 5706 5705 5703 5702 5700 5698 5697 5693 5691 5689 5687 5687 5684 5676 5672 5675 5682 5683 5678 5677 5685 5690 5691 5693 5697 5702 5708 5715 5722 5727 5733
5817 5816 5815 5815 5814 5813 5812 5811 5809 5807 5806 5804 5803 5802 5800 5798 5796 5793 5791 5789 5786 5783 5780 5776 5773 5770 5766 5763 5760 5757 5753 5750 5747 5745 5742 5739 5736 5733 5729 5726 5724 5722 5720 5718 5715 5713 5712 5710 5708 5706 5704 5702 5701 5701 5700 5699 5697 5695 5693 5691 5689 5685 5683 5681 5678 5677 5674 5667 5662 5664 5671 5673 5668 5668 5676 5680 5680 5683 5688 5693 5699 5706 5713 5719 5725
5813 5812 5811 5810 5810 5809 5808 5807 5805 5803 5801 5799 5798 5796 5795 5793 5791 5788 5786 5783 5780 5777 5774 5770 5767 5764 5760 5758 5755 5752 5748 5744 5741 5738 5735 5733 5729 5726 5723 5720 5718 5716 5714 5712 5709 5707 5706 5704 5702 5701 5699 5697 5696 5694 5694 5693 5691 5689 5687 5684 5680 5676 5674 5672 5669 5668 5665 5659 5654 5654 5660 5662 5659 5659 5666 5669 5669 5674 5679 5684 5690 5697 5704 5711 5717
5808 5807 5806 5806 5805 5804 5803 5802 5800 5799 5797 5795 5793 5792 5790 5788 5786 5783 5780 5778 5775 5771 5768 5764 5761 5758 5755 5752 5749 5746 5742 5739 5735 5732 5729 5726 5724 5721 5718 5715 5713 5711 5708 5705 5704 5702 5700 5699 5697 5696 5694 5693 5691 5689 5688 5686 5685 5683 5681 5679 5673 5668 5665 5662 5660 5660 5657 5651 5647 5645 5649 5653 5651 5651 5656 5659 5660 5665 5671 5676 5682 5689 5697 5704 5710
5803 5802 5801 5800 5799 5799 5798 5797 5795 5793 5791 5790 5789 5788 5786 5783 5780 5778 5775 5772 5769 5766 5762 5759 5756 5753 5749 5747 5743 5740 5737 5733 5730 5726 5723 5721 5719 5716 5713 5711 5708 5705 5702 5700 5699 5697 5695 5694 5692 5691 5689 5688 5687 5685 5683 5681 5679 5677 5675 5672 5667 5661 5656 5652 5651 5652 5650 5645 5641 5638 5640 5644 5644 5644 5648 5651 5653 5658 5664 5669 5675 5681 5689 5696 5703
5796 5795 5795 5794 5794 5793 5792 5791 5790 5788 5786 5785 5785 5783 5781 5778 5775 5772 5769 5766 5763 5760 5756 5753 5750 5747 5744 5741 5738 5735 5732 5728 5725 5721 5718 5716 5714 5711 5709 5706 5703 5700 5698 5696 5694 5692 5691 5689 5688 5686 5685 5683 5682 5681 5679 5676 5674 5671 5668 5664 5658 5653 5649 5645 5643 5644 5645 5641 5635 5631 5633 5636 5637 5638 5641 5644 5647 5652 5658 5662 5668 5674 5682 5690 5696
5791 5790 5790 5789 5788 5788 5787 5786 5784 5783 5782 5780 5779 5777 5775 5772 5769 5766 5764 5761 5757 5754 5751 5748 5745 5742 5738 5735 5733 5730 5727 5724 5720 5717 5714 5712 5709 5706 5704 5701 5698 5696 5693 5692 5690 5689 5687 5685 5684 5682 5680 5679 5677 5676 5674 5672 5670 5666 5662 5657 5652 5646 5642 5639 5636 5636 5638 5637 5631 5625 5625 5627 5630 5633 5635 5638 5642 5647 5651 5656 5662 5668 5676 5683 5690